Wind_Speed
21 7 8 11 13 14 14 10 11 13 14 15 15 15 21 25 19 2 23 29 29 32 31 30 28 27 28 27 22 22 21 16 17 19 17 18 16 20 18 8 7 10 14 9
7 14 12 13 15 17 16 13 8 7 21 8 12 14 10 12 9 10 12 28 31 31 33 33 31 32 31 29 25 24 23 20 21 23 21 18 15 17 10 4 2 10 11 9
14 13 13 18 17 17 16 11 10 8 15 7 12 11 9 4 4 11 31 26 34 36 37 37 36 35 33 31 28 30 27 24 28 25 21 15 10 13 12 5 3 16 12 8
12 14 18 19 18 15 12 16 14 7 14 5 14 5 6 11 16 21 36 33 33 37 39 39 38 38 36 33 28 32 30 26 29 26 19 13 17 18 12 6 8 10 14 9
15 18 14 20 16 16 17 17 10 18 8 7 10 7 5 9 14 24 40 39 39 39 41 44 41 39 37 34 32 29 32 27 28 26 21 19 20 17 12 9 9 9 14 13
18 18 18 18 17 17 17 17 13 7 5 3 13 14 6 8 17 22 35 45 41 40 42 44 42 39 39 37 35 31 32 31 30 29 24 23 21 17 18 15 16 8 14 15
8 15 19 19 17 17 15 9 4 3 2 6 11 6 9 21 19 6 7 36 40 42 42 43 45 43 39 40 38 34 32 34 32 33 29 23 25 20 14 18 16 9 12 13
11 13 17 13 14 16 12 9 6 5 3 7 9 6 6 16 26 15 39 28 40 43 44 49 49 48 46 41 41 38 33 34 33 36 34 30 30 26 17 20 15 13 10 9
5 17 9 18 19 11 20 13 10 6 8 2 5 8 8 11 12 14 29 26 28 31 41 50 51 51 49 45 43 42 36 32 32 34 37 32 36 31 20 20 18 15 13 16
13 12 13 20 18 23 9 6 7 3 7 6 6 3 5 5 2 11 21 34 39 42 42 45 50 52 50 47 44 42 38 32 30 31 38 38 33 34 26 24 22 22 14 9
13 9 17 10 15 17 15 12 6 6 3 5 3 6 11 8 3 6 5 17 23 14 19 39 45 50 53 49 46 43 41 36 31 29 32 39 38 35 33 28 23 27 19 15
5 11 8 18 17 9 20 13 10 6 9 3 5 6 3 15 17 10 9 30 22 21 17 11 29 47 47 50 44 43 42 40 34 31 30 34 35 36 38 37 30 29 28 17
7 3 5 9 9 13 9 18 11 6 7 9 3 4 3 11 12 25 21 29 29 31 22 20 7 45 45 46 45 41 40 38 34 32 33 33 33 33 35 40 40 35 33 29
5 3 1 5 7 4 3 12 20 9 8 9 8 5 6 8 14 28 22 16 29 31 28 26 28 28 35 42 43 43 43 40 36 33 34 35 33 34 34 33 38 39 37 35
4 3 6 9 14 15 16 17 20 13 8 8 7 4 7 4 17 21 28 27 29 25 25 23 24 25 17 32 38 40 41 43 38 37 37 37 34 32 35 34 33 36 41 40
3 3 5 9 13 14 15 18 15 22 9 6 6 11 4 32 37 37 28 30 26 25 21 15 13 16 19 14 9 35 38 41 41 40 39 37 36 35 34 36 35 34 36 42
3 1 1 7 7 10 11 8 9 5 15 5 11 5 10 18 22 25 28 26 25 22 16 15 14 9 7 8 6 8 21 33 39 41 40 40 39 38 36 35 37 36 36 37
6 2 2 3 5 4 4 23 23 27 23 18 18 12 19 23 29 32 29 23 20 17 16 14 14 11 8 6 7 3 4 10 34 39 42 41 41 40 39 37 37 37 38 39
4 3 2 2 3 7 12 12 13 8 13 15 11 11 12 27 33 28 22 21 16 15 16 16 13 13 12 7 6 10 10 12 12 37 38 41 42 42 43 42 41 39 39 41
7 2 3 3 2 1 6 12 16 8 7 16 15 11 15 9 6 4 13 14 14 12 12 17 17 11 8 10 10 12 11 12 10 15 36 39 39 42 44 44 44 43 42 42
2 3 4 4 4 4 10 14 13 5 4 9 14 14 18 11 8 9 7 9 11 12 13 15 18 16 14 16 16 15 14 13 12 15 22 35 39 42 43 42 43 44 45 44
3 2 3 3 2 1 25 8 6 5 15 14 17 16 12 16 13 10 7 8 9 14 15 15 19 20 18 18 16 15 14 14 15 19 23 29 36 37 42 43 42 43 45 45
4 4 3 5 5 9 23 21 20 14 13 17 17 13 15 14 13 8 8 9 10 12 13 15 17 20 21 20 20 18 18 17 15 17 16 22 30 35 35 42 41 43 42 45
18 22 3 6 9 13 23 17 16 15 13 13 12 12 12 13 9 9 10 13 14 15 17 19 20 20 20 20 19 19 18 18 16 14 16 15 23 30 31 32 38 40 42 45
4 6 4 8 21 8 16 19 18 14 12 10 7 8 10 13 11 14 15 17 19 21 21 22 20 19 19 19 18 18 19 17 17 15 14 15 20 21 27 31 33 37 41 43
14 8 4 3 13 11 12 20 15 14 11 14 14 7 7 5 9 13 14 13 14 15 15 14 15 15 16 17 17 18 16 18 16 16 14 14 15 18 20 22 27 31 35 36
Wind_Direction
232 223 214 236 251 253 267 280 131 126 147 117 166 184 248 263 272 267 197 184 192 183 179 177 177 181 182 186 180 170 184 173 169 159 157 153 134 144 169 151 132 141 127 110
245 228 231 246 253 265 266 259 126 131 170 102 197 226 196 235 266 282 293 194 191 182 180 178 180 183 186 188 184 173 189 185 170 155 148 140 141 166 179 184 229 172 137 132
228 237 233 240 254 262 268 262 146 157 179 63 179 282 256 198 195 252 251 230 191 184 182 181 183 185 189 193 190 178 187 186 165 158 161 174 199 179 179 196 181 154 136 121
242 242 237 238 235 252 264 266 170 170 163 191 183 267 201 180 184 201 230 243 190 185 184 185 186 186 192 196 195 186 189 191 173 174 182 176 197 186 188 215 169 148 135 130
230 237 245 245 244 230 253 268 273 164 170 165 205 244 246 207 184 216 212 229 195 187 183 187 188 190 193 198 197 198 199 197 185 183 181 178 177 195 196 200 186 151 153 138
240 237 239 249 256 251 248 264 280 180 203 262 213 206 198 190 227 195 209 201 185 184 184 190 191 190 193 200 200 202 205 203 190 190 186 186 186 183 194 200 190 186 159 153
264 242 251 251 251 263 252 247 275 329 36 237 274 281 184 193 193 192 236 186 183 181 181 183 186 189 191 197 202 204 208 209 197 195 193 196 183 189 192 209 206 209 170 172
225 251 241 232 234 241 251 226 202 189 220 247 264 248 212 193 153 185 202 217 182 179 183 185 191 192 193 199 202 205 207 210 206 197 197 197 190 196 199 196 207 190 191 187
232 236 266 230 249 236 251 256 223 228 206 244 262 272 47 141 133 122 142 205 177 171 194 191 191 194 193 196 202 204 207 211 210 204 200 201 198 203 197 193 206 202 225 224
236 266 258 245 234 252 219 228 256 254 212 231 284 42 318 45 85 174 179 196 168 186 195 193 188 192 195 196 202 204 208 211 212 210 205 207 204 206 201 194 208 207 215 213
202 201 257 279 234 225 245 243 239 179 203 196 218 269 183 187 251 306 344 151 182 165 208 201 190 192 196 194 198 203 208 208 211 212 213 211 212 211 210 204 208 203 208 212
215 205 214 245 262 230 228 235 204 184 251 256 142 275 205 133 243 34 64 109 94 69 78 83 194 187 186 193 193 201 208 208 212 217 217 219 220 217 215 213 210 210 208 218
326 290 196 268 284 265 234 227 233 191 187 230 162 261 176 134 103 68 72 66 67 73 74 58 108 181 183 188 191 196 208 210 212 218 222 221 224 226 220 218 220 222 218 214
341 297 133 209 241 248 280 234 228 212 200 211 220 181 261 138 131 120 119 106 72 68 69 73 78 174 179 188 195 199 205 212 213 218 222 223 227 230 231 224 222 223 226 226
335 307 323 296 283 299 294 297 222 219 204 177 229 107 342 162 164 107 103 76 69 63 58 53 63 73 176 193 203 201 206 210 216 219 221 225 229 236 234 234 228 226 228 233
260 271 299 297 298 301 291 270 296 213 211 204 128 58 11 89 68 66 70 74 59 46 49 49 44 61 72 112 171 208 209 211 217 220 225 228 229 233 238 238 236 232 230 234
264 238 305 263 321 286 287 257 268 224 44 60 84 73 83 73 77 72 69 58 53 50 28 28 29 21 357 26 86 151 215 218 220 225 227 230 231 232 237 242 240 239 238 235
335 51 41 281 345 242 55 35 82 69 47 63 74 52 78 81 73 58 66 61 46 33 23 10 360 9 14 311 307 263 163 216 226 228 230 231 233 234 236 238 242 245 243 243
341 351 334 162 274 254 36 9 6 103 40 45 58 37 60 96 65 36 44 64 56 29 11 4 358 357 2 348 295 258 240 236 242 235 234 236 237 238 237 238 242 246 247 246
313 354 122 348 315 305 33 6 330 147 77 41 45 37 27 150 90 57 25 26 31 28 359 4 7 1 345 323 307 304 279 266 257 276 244 240 241 241 241 243 243 246 247 250
299 354 279 270 240 83 347 337 303 66 115 71 69 59 58 77 81 83 57 42 24 8 352 4 9 5 354 343 326 310 294 279 259 250 252 245 244 243 244 244 247 246 245 248
147 233 268 306 167 3 329 38 59 144 89 79 82 61 66 89 78 67 52 51 17 355 358 8 12 13 5 349 334 322 307 292 283 268 247 249 244 244 241 243 244 246 246 248
27 338 129 54 94 107 64 90 92 81 78 80 69 60 54 75 71 57 47 39 24 12 4 5 8 18 16 359 347 328 323 310 292 269 258 248 248 246 245 243 244 245 247 249
344 349 69 94 39 31 20 79 75 63 54 41 44 50 34 42 54 59 55 36 31 21 4 355 358 5 2 5 0 346 323 317 309 288 262 258 248 248 246 247 245 246 247 248
315 331 359 82 22 46 29 23 25 36 22 17 27 26 20 9 18 19 21 19 19 18 11 359 349 348 347 347 356 4 348 321 311 296 281 261 252 249 248 245 246 247 250 251
27 15 24 46 3 348 344 350 357 359 358 333 334 353 15 347 6 3 2 358 2 7 8 6 342 336 337 345 347 355 11 355 324 303 290 277 249 241 243 249 255 255 257 258
Height
1475 1484 1492 1486 1479 1475 1475 1482 1495 1501 1506 1512 1515 1510 1499 1498 1504 1511 1510 1509 1513 1518 1521 1526 1531 1534 1537 1541 1547 1549 1552 1557 1561 1563 1565 1567 1570 1572 1575 1579 1581 1582 1584 1584
1476 1481 1474 1474 1472 1473 1471 1476 1486 1498 1499 1501 1509 1499 1492 1498 1505 1513 1514 1508 1509 1515 1519 1523 1527 1530 1534 1537 1544 1548 1551 1555 1560 1563 1565 1568 1570 1572 1573 1575 1577 1579 1581 1581
1476 1471 1468 1471 1473 1474 1472 1476 1481 1488 1498 1503 1512 1513 1499 1502 1507 1503 1500 1508 1505 1508 1514 1519 1522 1525 1531 1535 1540 1545 1550 1553 1558 1562 1565 1567 1570 1572 1573 1574 1575 1577 1579 1580
1468 1465 1465 1466 1471 1469 1484 1458 1465 1479 1493 1512 1500 1525 1497 1495 1504 1504 1495 1497 1499 1503 1508 1515 1519 1521 1526 1532 1538 1544 1548 1553 1557 1559 1563 1567 1569 1571 1574 1575 1576 1577 1579 1581
1465 1465 1465 1465 1464 1461 1469 1455 1461 1475 1481 1487 1498 1511 1482 1480 1501 1492 1492 1495 1494 1498 1502 1508 1513 1518 1523 1529 1535 1541 1546 1551 1556 1558 1561 1565 1568 1571 1574 1575 1576 1578 1580 1581
1458 1456 1457 1459 1454 1455 1453 1457 1458 1462 1478 1502 1485 1497 1482 1484 1474 1475 1481 1486 1485 1491 1498 1503 1509 1514 1518 1525 1531 1536 1542 1548 1553 1557 1559 1562 1566 1569 1571 1574 1576 1578 1580 1581
1459 1455 1452 1451 1458 1451 1455 1468 1497 1503 1507 1516 1469 1476 1478 1455 1458 1462 1471 1475 1479 1486 1492 1497 1504 1509 1514 1518 1525 1531 1536 1543 1549 1553 1557 1560 1564 1568 1569 1571 1574 1577 1579 1579
1473 1478 1451 1444 1450 1458 1459 1466 1492 1515 1518 1504 1465 1482 1468 1442 1455 1460 1457 1468 1473 1479 1485 1488 1492 1499 1506 1510 1518 1525 1531 1537 1544 1549 1553 1557 1561 1565 1567 1570 1572 1575 1576 1577
1471 1463 1443 1442 1442 1446 1453 1465 1453 1477 1479 1494 1476 1452 1445 1443 1454 1452 1457 1468 1471 1479 1482 1484 1486 1490 1498 1504 1510 1516 1524 1532 1538 1544 1549 1554 1558 1561 1565 1568 1571 1572 1573 1575
1450 1470 1447 1437 1438 1435 1445 1442 1469 1466 1504 1509 1481 1475 1480 1457 1456 1464 1461 1461 1456 1465 1474 1479 1479 1485 1491 1498 1505 1513 1519 1527 1533 1539 1545 1549 1554 1558 1562 1565 1568 1570 1571 1572
1439 1454 1451 1441 1441 1446 1445 1451 1450 1456 1474 1500 1504 1490 1452 1454 1448 1450 1460 1452 1457 1462 1468 1470 1476 1480 1484 1494 1501 1507 1514 1521 1528 1534 1540 1544 1550 1554 1559 1562 1564 1567 1570 1571
1428 1440 1461 1446 1430 1426 1430 1441 1446 1467 1484 1475 1482 1477 1431 1432 1449 1452 1457 1458 1467 1464 1463 1466 1469 1477 1485 1492 1498 1504 1510 1517 1523 1530 1534 1539 1544 1550 1553 1557 1561 1564 1566 1569
1436 1444 1463 1456 1442 1427 1433 1427 1435 1440 1449 1473 1488 1481 1433 1437 1446 1455 1462 1457 1464 1460 1465 1467 1468 1474 1482 1489 1496 1503 1507 1513 1519 1525 1530 1534 1538 1542 1547 1551 1555 1559 1563 1565
1434 1440 1448 1466 1450 1433 1434 1430 1426 1441 1461 1461 1466 1461 1450 1444 1448 1448 1469 1477 1469 1468 1469 1473 1476 1482 1485 1489 1494 1500 1504 1508 1512 1518 1524 1528 1531 1535 1540 1545 1548 1553 1556 1559
1437 1448 1441 1437 1432 1431 1433 1434 1423 1435 1440 1457 1453 1457 1456 1447 1447 1454 1462 1474 1473 1477 1475 1477 1480 1485 1489 1491 1495 1495 1501 1503 1507 1511 1517 1521 1525 1529 1533 1537 1541 1545 1549 1552
1436 1451 1441 1447 1434 1435 1435 1428 1423 1417 1426 1433 1442 1462 1452 1446 1460 1461 1473 1476 1481 1480 1482 1484 1484 1486 1490 1492 1495 1497 1498 1501 1502 1505 1508 1514 1519 1523 1525 1529 1533 1537 1541 1544
1442 1447 1452 1461 1443 1439 1450 1430 1422 1418 1430 1433 1460 1465 1456 1467 1468 1474 1478 1484 1488 1489 1487 1486 1488 1490 1491 1490 1492 1495 1498 1498 1498 1500 1503 1507 1512 1516 1519 1522 1526 1530 1532 1537
1447 1446 1451 1461 1452 1468 1438 1430 1432 1445 1452 1455 1460 1466 1464 1470 1475 1475 1479 1483 1488 1488 1490 1489 1489 1489 1491 1491 1490 1488 1488 1493 1497 1495 1498 1502 1505 1509 1513 1516 1519 1523 1526 1528
1441 1448 1457 1465 1464 1438 1440 1453 1454 1451 1480 1473 1476 1476 1478 1471 1473 1481 1488 1488 1489 1490 1491 1492 1489 1487 1485 1484 1484 1483 1485 1488 1490 1493 1493 1496 1499 1502 1506 1509 1511 1515 1518 1521
1442 1445 1459 1462 1469 1461 1468 1461 1453 1458 1486 1485 1486 1482 1477 1474 1489 1497 1491 1488 1489 1492 1491 1487 1486 1485 1484 1483 1481 1483 1482 1484 1485 1488 1490 1491 1493 1494 1496 1499 1503 1507 1510 1512
1455 1456 1464 1465 1469 1464 1463 1460 1454 1473 1496 1488 1490 1489 1486 1486 1492 1496 1496 1494 1493 1490 1488 1486 1486 1482 1478 1476 1472 1474 1479 1480 1479 1479 1482 1484 1486 1487 1489 1493 1496 1499 1501 1504
1461 1466 1467 1462 1467 1481 1465 1461 1472 1484 1482 1486 1490 1492 1492 1492 1494 1495 1495 1493 1493 1490 1487 1485 1483 1479 1475 1473 1473 1474 1475 1472 1472 1473 1474 1475 1478 1481 1483 1485 1488 1491 1493 1495
1472 1468 1468 1473 1484 1482 1476 1473 1477 1484 1485 1483 1487 1492 1493 1494 1494 1496 1494 1492 1490 1488 1487 1484 1481 1476 1471 1472 1471 1469 1468 1468 1468 1468 1467 1469 1472 1474 1477 1478 1481 1483 1485 1486
1489 1474 1471 1473 1487 1487 1487 1485 1483 1481 1483 1483 1486 1491 1494 1493 1494 1495 1491 1488 1487 1484 1482 1479 1474 1470 1474 1475 1473 1471 1468 1467 1465 1464 1464 1465 1466 1468 1470 1472 1473 1474 1475 1476
1500 1491 1482 1483 1488 1486 1487 1487 1486 1484 1487 1489 1490 1490 1489 1490 1491 1489 1486 1480 1480 1477 1475 1475 1478 1480 1480 1478 1475 1470 1467 1465 1463 1461 1461 1460 1461 1462 1463 1463 1464 1465 1466 1469
1499 1499 1500 1501 1502 1499 1496 1494 1492 1492 1493 1494 1493 1495 1494 1492 1489 1486 1486 1486 1484 1484 1484 1484 1484 1484 1482 1479 1476 1472 1466 1463 1460 1459 1457 1457 1456 1456 1456 1456 1457 1458 1459 1461